sat.trackr.live / text

‹ back to catalog

STARLINK-3079

NORAD 49433 · 2021-104AB

PAYLOAD ACTIVE UNKNOWN

§ Identity

Operator
Country
US
Launch date
2021-11-13
Launch site
AFETR
Launch vehicle
Mass (kg)
RCS (m²)

Purposes: comms

External: N2YO · Heavens-Above · Gunter

§ Orbital elements

Epoch: 2026-09-20T03:18:23.626080Z

Period
93.85 min
Inclination
53.1625°
Eccentricity
0.0000814
Mean motion
15.34386746 rev/d
Perigee alt
462.2 km
Apogee alt
463.3 km
Semi-major
6,840.9 km
B*
3.1688e-5
RAAN
51.6092°
Arg perigee
71.7510°
Mean anomaly
288.3581°
Rev number
26,941

§ Raw data

STARLINK-30791 49433U 21104AB  26263.13777345  .00000694  00000+0  31688-4 0  99952 49433  53.1625  51.6092 0000814  71.7510 288.3581 15.34386746269418

JSON: /api/v1/satellites/49433 · /tle

For live sub-satellite position, see the globe view (requires WebGL).

§ Visibility from observer

Set your observer location to see the next 7 days of passes ≥ 10°. The values pass through the URL so the page stays shareable.

No JS? Fill the form by hand. The geolocation button needs JavaScript.